FW7504 Weather Reports


time (UTC)temp
C
wind
direction
speed
KPH
gust
KPH
rain 1hr
cm
rain 24hr
cm
rain mn
cm
humidity
%
barometer
mb
20260906134053 25 0 0.0 0.0 0.00 0.05 0.00 84 1014.8
20260906133552 25 0 0.0 0.0 0.00 0.05 0.00 84 1015.0
20260906133132 25 0 0.0 0.0 0.00 0.05 0.00 85 1014.9
20260906132554 25 0 0.0 0.0 0.00 0.05 0.00 86 1014.9
20260906132054 24 0 0.0 0.0 0.00 0.05 0.00 87 1015.0
20260906131616 23 0 0.0 0.0 0.00 0.05 0.00 88 1015.1
20260906131053 23 0 0.0 0.0 0.00 0.05 0.00 89 1015.0
20260906130557 23 0 0.0 0.0 0.00 0.05 0.00 89 1015.0
20260906130113 23 0 0.0 0.0 0.00 0.05 0.00 90 1015.1
20260906125557 23 0 0.0 0.0 0.00 0.05 0.00 90 1014.9
20260906125054 23 0 0.0 0.0 0.00 0.05 0.00 90 1015.0
20260906124559 23 0 0.0 0.0 0.00 0.05 0.00 90 1014.9
20260906124052 23 0 0.0 0.0 0.00 0.05 0.00 90 1014.9
20260906123553 23 0 0.0 0.0 0.00 0.05 0.00 90 1014.9
20260906123105 23 0 0.0 0.0 0.00 0.05 0.00 89 1014.8
20260906122556 23 0 0.0 0.0 0.00 0.05 0.00 90 1014.9
20260906122053 23 0 0.0 0.0 0.00 0.05 0.00 90 1014.7
20260906121603 23 0 0.0 0.0 0.00 0.05 0.00 90 1014.9
20260906121052 23 0 0.0 0.0 0.00 0.05 0.00 90 1014.7
20260906120552 23 0 0.0 0.0 0.00 0.05 0.00 90 1014.6
20260906120104 23 0 0.0 0.0 0.00 0.05 0.00 90 1014.6
20260906115552 23 0 0.0 0.0 0.00 0.05 0.00 90 1014.5
20260906115053 23 0 0.0 0.0 0.00 0.05 0.00 90 1014.2
20260906114604 23 0 0.0 0.0 0.00 0.05 0.00 90 1014.3
20260906114052 23 0 0.0 0.0 0.00 0.05 0.00 90 1014.3
20260906113554 23 0 0.0 0.0 0.00 0.05 0.00 89 1014.3
20260906113058 23 0 0.0 0.0 0.00 0.05 0.00 90 1014.3
20260906112554 23 0 0.0 0.0 0.00 0.05 0.00 89 1014.2
20260906112052 23 0 0.0 0.0 0.00 0.05 0.00 89 1014.1
20260906111600 23 0 0.0 0.0 0.00 0.05 0.00 89 1014.0
20260906111052 23 0 0.0 0.0 0.00 0.05 0.00 88 1013.9
20260906110554 23 0 0.0 0.0 0.00 0.05 0.00 88 1013.8
20260906110058 23 0 0.0 0.0 0.00 0.05 0.00 88 1013.6
20260906105549 23 0 0.0 0.0 0.00 0.05 0.00 88 1013.7
20260906105053 23 0 0.0 0.0 0.00 0.05 0.00 88 1013.7
20260906104559 23 0 0.0 0.0 0.00 0.05 0.00 89 1013.7
20260906104052 23 0 0.0 0.0 0.00 0.05 0.00 89 1013.7
20260906103552 23 0 0.0 0.0 0.00 0.05 0.00 88 1013.8
20260906103100 23 0 0.0 0.0 0.00 0.05 0.00 88 1013.7
20260906102553 23 0 0.0 0.0 0.00 0.05 0.00 88 1013.7
20260906102052 23 0 0.0 0.0 0.00 0.05 0.00 89 1013.7
20260906101559 23 0 0.0 0.0 0.00 0.05 0.00 89 1013.6
20260906101052 23 0 0.0 0.0 0.00 0.05 0.00 89 1013.7
20260906100552 23 0 0.0 0.0 0.00 0.05 0.00 89 1013.7
20260906100111 23 0 0.0 0.0 0.00 0.05 0.00 88 1013.8
20260906095556 23 0 0.0 0.0 0.00 0.05 0.00 88 1013.7
20260906095053 23 0 0.0 0.0 0.00 0.05 0.00 88 1013.7
20260906094616 23 0 0.0 0.0 0.00 0.05 0.00 88 1013.6
20260906094052 23 0 0.0 0.0 0.00 0.05 0.00 89 1013.7
20260906093555 23 0 0.0 0.0 0.00 0.05 0.00 89 1013.8
20260906093100 23 0 0.0 0.0 0.00 0.05 0.00 89 1013.9
20260906092554 23 0 0.0 0.0 0.00 0.05 0.00 88 1014.1
20260906092052 23 0 0.0 0.0 0.00 0.05 0.00 88 1014.1
20260906091601 23 0 0.0 3.2 0.00 0.05 0.00 89 1014.1
20260906091054 23 0 0.0 3.2 0.00 0.05 0.00 88 1014.1
20260906090552 23 352 0.0 3.2 0.00 0.05 0.00 88 1014.2
20260906090115 23 0 0.0 3.2 0.00 0.05 0.00 88 1014.2
20260906085554 23 0 0.0 3.2 0.00 0.05 0.00 88 1014.2
20260906085055 23 352 0.0 3.2 0.00 0.05 0.00 88 1014.3
20260906084602 23 0 0.0 1.6 0.00 0.05 0.00 88 1014.3
20260906084053 23 0 0.0 3.2 0.00 0.05 0.00 88 1014.3
20260906083553 23 0 0.0 4.8 0.00 0.05 0.00 88 1014.5
20260906083103 23 0 0.0 4.8 0.00 0.05 0.00 88 1014.6
20260906082552 23 0 0.0 4.8 0.00 0.05 0.00 88 1014.3
20260906082053 23 5 0.0 4.8 0.00 0.05 0.00 88 1014.4
20260906081601 23 5 0.0 4.8 0.00 0.05 0.00 88 1014.3
20260906081052 23 0 0.0 3.2 0.00 0.05 0.00 88 1014.2
20260906080552 23 0 0.0 3.2 0.00 0.05 0.00 89 1014.1
20260906080105 23 0 0.0 3.2 0.00 0.05 0.00 89 1014.0
20260906075552 23 0 0.0 3.2 0.00 0.05 0.00 89 1014.0
20260906075053 23 0 0.0 3.2 0.00 0.05 0.00 89 1013.8
20260906074610 23 0 0.0 3.2 0.00 0.05 0.00 89 1013.8
20260906074052 23 5 0.0 1.6 0.00 0.05 0.00 89 1013.8
20260906073552 23 0 0.0 1.6 0.00 0.05 0.00 89 1013.8
20260906073104 23 0 0.0 3.2 0.00 0.05 0.00 89 1013.8
20260906072552 23 0 0.0 3.2 0.00 0.05 0.00 89 1013.6
20260906072052 23 0 0.0 6.4 0.00 0.05 0.00 89 1013.7
20260906071602 23 0 0.0 6.4 0.00 0.05 0.00 89 1013.7
20260906071049 23 0 0.0 6.4 0.00 0.05 0.00 90 1014.0
20260906070549 23 0 0.0 3.2 0.00 0.05 0.00 90 1014.1
20260906070107 23 0 0.0 3.2 0.00 0.05 0.00 89 1013.9
20260906065555 23 0 0.0 3.2 0.00 0.05 0.00 89 1013.8
20260906065053 23 0 0.0 3.2 0.00 0.05 0.00 89 1013.9
20260906064602 23 0 0.0 3.2 0.00 0.05 0.00 89 1014.0
20260906064052 23 352 0.0 1.6 0.00 0.05 0.00 89 1014.1
20260906063551 23 0 0.0 0.0 0.00 0.05 0.00 89 1014.2
20260906063103 23 0 0.0 0.0 0.00 0.05 0.00 89 1014.3
20260906062551 23 0 0.0 3.2 0.00 0.05 0.00 89 1014.3
20260906062048 23 0 0.0 3.2 0.00 0.05 0.00 89 1014.2
20260906061602 23 0 0.0 3.2 0.00 0.05 0.00 88 1014.1
20260906061056 23 352 0.0 3.2 0.00 0.05 0.00 89 1014.2
20260906060552 23 0 0.0 1.6 0.00 0.05 0.00 89 1014.2
20260906060108 23 0 0.0 1.6 0.00 0.05 0.00 88 1014.2
20260906055552 23 0 0.0 1.6 0.00 0.05 0.00 89 1014.2
20260906055052 23 0 0.0 0.0 0.00 0.05 0.00 89 1014.1
20260906054605 23 0 0.0 0.0 0.00 0.05 0.00 88 1014.1
20260906054049 23 0 0.0 3.2 0.00 0.05 0.00 88 1014.0
20260906053553 23 0 0.0 3.2 0.00 0.05 0.00 88 1014.1
20260906053102 23 352 0.0 3.2 0.00 0.05 0.00 88 1014.0
20260906052555 23 0 0.0 1.6 0.00 0.05 0.00 88 1014.1
20260906052056 23 0 0.0 0.0 0.00 0.05 0.00 88 1014.1
20260906051602 23 0 0.0 0.0 0.00 0.05 0.00 88 1014.0
20260906051052 23 0 0.0 0.0 0.00 0.05 0.00 88 1014.1
20260906050549 23 0 0.0 0.0 0.00 0.05 0.00 87 1014.1
20260906050107 23 0 0.0 0.0 0.00 0.05 0.00 87 1014.2
20260906045548 23 0 0.0 0.0 0.00 0.05 0.00 87 1014.3
20260906045049 23 0 0.0 0.0 0.00 0.05 0.00 86 1014.4
20260906044600 23 0 0.0 0.0 0.00 0.05 0.00 86 1014.5
20260906044051 23 0 0.0 1.6 0.00 0.05 0.00 86 1014.6
20260906043552 23 0 0.0 1.6 0.00 0.05 0.00 86 1014.5
20260906043101 23 0 0.0 1.6 0.00 0.05 0.00 86 1014.5
20260906042553 23 352 0.0 1.6 0.00 0.05 0.00 86 1014.5
20260906042052 23 0 0.0 0.0 0.00 0.05 0.00 86 1014.5
20260906041604 23 0 0.0 0.0 0.00 0.05 0.00 85 1014.6
20260906041052 23 0 0.0 0.0 0.00 0.05 0.00 85 1014.5
20260906040552 23 0 0.0 0.0 0.00 0.05 0.00 85 1014.6
20260906035552 24 0 0.0 0.0 0.00 0.05 0.05 85 1014.6
20260906035049 24 0 0.0 1.6 0.00 0.05 0.05 85 1014.8
20260906034602 24 0 0.0 1.6 0.00 0.05 0.05 85 1014.5
20260906034053 24 0 0.0 1.6 0.00 0.05 0.05 84 1014.6
20260906033556 24 352 0.0 1.6 0.00 0.05 0.05 84 1014.7
20260906033102 24 0 0.0 1.6 0.00 0.05 0.05 84 1014.6
20260906032552 24 0 0.0 3.2 0.00 0.05 0.05 83 1014.7
20260906032052 24 0 0.0 3.2 0.00 0.05 0.05 83 1014.7
20260906031603 24 0 0.0 3.2 0.00 0.05 0.05 83 1014.5
20260906031052 24 0 0.0 1.6 0.00 0.05 0.05 83 1014.7
20260906030552 24 0 0.0 1.6 0.00 0.05 0.05 83 1014.6
20260906025552 25 0 0.0 0.0 0.00 0.05 0.05 83 1014.6
20260906025052 25 0 0.0 0.0 0.00 0.05 0.05 83 1014.6
20260906024607 25 0 0.0 0.0 0.00 0.05 0.05 83 1014.5
20260906024051 25 0 0.0 0.0 0.00 0.05 0.05 82 1014.2
20260906023549 25 0 0.0 0.0 0.00 0.05 0.05 82 1014.2
20260906023103 25 0 0.0 0.0 0.00 0.05 0.05 81 1014.1
20260906022555 25 0 0.0 0.0 0.00 0.05 0.05 81 1014.0
20260906022055 25 0 0.0 0.0 0.00 0.05 0.05 81 1014.0
20260906021607 25 0 0.0 0.0 0.00 0.05 0.05 80 1014.2
20260906021055 25 0 0.0 0.0 0.00 0.05 0.05 80 1014.1
20260906020552 25 0 0.0 0.0 0.00 0.05 0.05 80 1014.1
20260906020104 25 0 0.0 0.0 0.00 0.05 0.05 79 1014.1
20260906015551 25 0 0.0 0.0 0.00 0.05 0.05 80 1014.0
20260906015049 26 0 0.0 0.0 0.00 0.05 0.05 79 1013.9
20260906014611 26 0 0.0 0.0 0.00 0.05 0.05 79 1013.7
20260906014051 26 0 0.0 3.2 0.00 0.05 0.05 79 1013.8
20260906013554 26 0 0.0 3.2 0.00 0.05 0.05 78 1013.6
20260906013106 26 0 0.0 3.2 0.00 0.05 0.05 77 1013.5
20260906012550 26 352 0.0 4.8 0.00 0.05 0.05 77 1013.5
20260906012049 26 352 0.0 4.8 0.00 0.05 0.05 77 1013.4
20260906011619 26 352 3.2 4.8 0.00 0.05 0.05 76 1013.5
20260906011048 26 323 1.6 4.8 0.00 0.05 0.05 77 1013.5
20260906010548 26 0 0.0 1.6 0.00 0.05 0.05 76 1013.6
20260906010105 26 0 0.0 1.6 0.00 0.05 0.05 75 1013.4
20260906005548 26 0 0.0 1.6 0.00 0.05 0.05 75 1013.4
20260906005052 26 0 0.0 1.6 0.00 0.05 0.05 75 1013.4
20260906004605 27 0 0.0 0.0 0.00 0.05 0.05 75 1013.4
20260906004052 27 0 0.0 0.0 0.00 0.05 0.05 74 1013.3
20260906003549 27 0 0.0 0.0 0.00 0.05 0.05 74 1013.3
20260906003111 27 0 0.0 0.0 0.00 0.05 0.05 74 1013.2
20260906002552 27 0 0.0 0.0 0.00 0.05 0.05 73 1013.1
20260906002055 27 0 0.0 1.6 0.00 0.05 0.05 73 1013.1
20260906001604 27 0 0.0 4.8 0.00 0.05 0.05 71 1013.0
20260906001054 28 0 1.6 4.8 0.00 0.05 0.05 71 1013.1
20260906000551 28 68 1.6 4.8 0.00 0.05 0.05 71 1013.1
20260905235552 28 5 0.0 1.6 0.00 0.05 0.05 69 1013.5
20260905235057 28 0 0.0 1.6 0.00 0.05 0.05 69 1013.4
20260905234603 28 0 0.0 3.2 0.00 0.05 0.05 68 1013.2
20260905234054 28 0 0.0 3.2 0.00 0.05 0.05 68 1013.5
20260905233554 28 0 0.0 3.2 0.00 0.05 0.05 67 1013.6
20260905233121 28 0 0.0 3.2 0.00 0.05 0.05 68 1013.5
20260905232553 28 0 0.0 1.6 0.00 0.05 0.05 68 1013.6
20260905232053 28 0 0.0 1.6 0.00 0.05 0.05 68 1013.4
20260905231602 29 0 0.0 1.6 0.00 0.05 0.05 67 1013.1
20260905231054 29 0 0.0 3.2 0.00 0.05 0.05 67 1012.9
20260905230556 29 0 0.0 12.9 0.00 0.05 0.05 65 1012.9
20260905230103 29 0 3.2 12.9 0.00 0.05 0.05 64 1012.9
20260905225553 29 113 4.8 12.9 0.00 0.05 0.05 64 1012.8
20260905225054 29 102 6.4 12.9 0.00 0.05 0.05 64 1012.7
20260905224625 30 104 4.8 12.9 0.00 0.05 0.05 63 1013.0
20260905224053 30 78 3.2 11.3 0.00 0.05 0.05 63 1013.0
20260905223553 30 77 1.6 11.3 0.00 0.05 0.05 63 1013.0
20260905223107 30 70 1.6 9.7 0.00 0.05 0.05 63 1013.1
20260905222553 30 71 3.2 11.3 0.00 0.05 0.05 63 1013.1
20260905222053 30 82 3.2 14.5 0.00 0.05 0.05 63 1013.3
20260905221559 30 53 4.8 14.5 0.00 0.05 0.05 62 1013.2
20260905221054 30 64 4.8 11.3 0.00 0.05 0.05 63 1013.3
20260905220553 30 360 1.6 9.7 0.00 0.05 0.05 64 1013.5
20260905220107 30 85 1.6 12.9 0.00 0.05 0.05 64 1013.6
20260905215554 30 63 4.8 16.1 0.00 0.05 0.05 64 1013.6
20260905215053 30 360 4.8 16.1 0.00 0.05 0.05 64 1013.7
20260905214606 30 90 4.8 11.3 0.00 0.05 0.05 65 1013.8
20260905214054 30 69 1.6 9.7 0.00 0.05 0.05 66 1013.8
20260905213554 30 0 3.2 16.1 0.00 0.05 0.05 65 1013.7
20260905213102 30 51 3.2 16.1 0.00 0.05 0.05 65 1013.6
20260905212554 30 41 6.4 17.7 0.00 0.05 0.05 64 1013.7
20260905212053 30 9 6.4 17.7 0.00 0.05 0.05 65 1013.6
20260905211609 30 59 4.8 17.7 0.00 0.05 0.05 66 1013.7
20260905211052 30 331 8.0 20.9 0.00 0.05 0.05 66 1013.7
20260905210553 30 34 6.4 22.5 0.00 0.05 0.05 66 1013.8
20260905205554 30 100 12.9 24.1 0.00 0.05 0.05 67 1013.5
20260905205053 30 94 12.9 24.1 0.00 0.05 0.05 67 1013.7
20260905204602 30 91 14.5 24.1 0.00 0.05 0.05 67 1013.7
20260905204056 30 322 8.0 24.1 0.00 0.05 0.05 67 1013.8
20260905203554 30 63 11.3 22.5 0.00 0.05 0.05 67 1014.0
20260905203106 30 67 11.3 24.1 0.00 0.05 0.05 67 1014.1
20260905202554 30 52 9.7 24.1 0.00 0.05 0.05 68 1014.1
20260905202056 30 109 6.4 20.9 0.00 0.05 0.05 69 1014.1
20260905201611 30 80 6.4 33.8 0.00 0.05 0.05 70 1013.9
20260905201055 30 77 11.3 33.8 0.00 0.05 0.05 71 1013.8
20260905200554 30 344 1.6 6.4 0.00 0.05 0.05 79 1013.4
20260905200104 30 0 0.0 3.2 0.00 0.05 0.05 83 1013.3
20260905195555 29 0 0.0 3.2 0.00 0.05 0.05 85 1013.4
20260905195054 29 0 0.0 1.6 0.00 0.05 0.05 88 1013.6
20260905194600 29 0 0.0 0.0 0.00 0.05 0.05 86 1013.5
20260905194057 29 0 0.0 0.0 0.00 0.05 0.05 88 1013.5
20260905193553 29 0 0.0 0.0 0.05 0.05 0.05 88 1013.6
20260905193100 29 0 0.0 0.0 0.05 0.05 0.05 89 1013.8
20260905192554 29 0 0.0 0.0 0.05 0.05 0.05 89 1013.8
20260905192054 29 0 0.0 0.0 0.05 0.05 0.05 89 1013.9
20260905191610 29 0 0.0 1.6 0.05 0.05 0.05 87 1013.9
20260905191053 29 0 0.0 3.2 0.05 0.05 0.05 84 1014.0
20260905190553 29 0 0.0 3.2 0.05 0.05 0.05 81 1014.2
20260905190138 30 0 0.0 3.2 0.05 0.05 0.05 78 1014.1
20260905185554 31 0 0.0 4.8 0.05 0.05 0.05 74 1014.4
20260905185054 32 0 1.6 8.0 0.05 0.05 0.05 71 1014.3
20260905184622 33 225 1.6 8.0 0.05 0.05 0.05 67 1014.3
20260905184056 34 360 1.6 8.0 0.05 0.05 0.05 60 1014.3
20260905183554 35 360 1.6 9.7 0.00 0.00 0.00 54 1014.0
20260905183106 35 360 3.2 9.7 0.00 0.00 0.00 53 1013.9
20260905182553 35 360 4.8 9.7 0.00 0.00 0.00 54 1014.1
20260905182056 35 360 1.6 6.4 0.00 0.00 0.00 52 1014.1
20260905181606 35 0 1.6 12.9 0.00 0.00 0.00 52 1014.1
20260905181054 35 360 1.6 12.9 0.00 0.00 0.00 52 1014.3
20260905180554 35 360 4.8 12.9 0.00 0.00 0.00 54 1014.4
20260905180108 35 360 0.0 12.9 0.00 0.00 0.00 53 1014.3
20260905175553 35 360 0.0 14.5 0.00 0.00 0.00 53 1014.3
20260905175054 35 360 6.4 14.5 0.00 0.00 0.00 53 1014.5
20260905174604 35 360 4.8 12.9 0.00 0.00 0.00 53 1014.6
20260905174052 35 360 3.2 9.7 0.00 0.00 0.00 55 1014.7
20260905173556 35 360 4.8 12.9 0.00 0.00 0.00 55 1014.7
20260905173109 34 360 3.2 16.1 0.00 0.00 0.00 54 1014.9
20260905172556 34 360 4.8 16.1 0.00 0.00 0.00 55 1014.9
20260905172053 33 360 0.0 8.0 0.00 0.00 0.00 57 1015.0
20260905171603 33 0 3.2 8.0 0.00 0.00 0.00 57 1014.9
20260905171050 33 360 1.6 8.0 0.00 0.00 0.00 59 1014.9
20260905170553 33 360 3.2 8.0 0.00 0.00 0.00 60 1015.0
20260905170120 33 360 0.0 12.9 0.00 0.00 0.00 62 1015.1
20260905165548 33 360 3.2 12.9 0.00 0.00 0.00 62 1015.0
20260905165055 33 360 0.0 12.9 0.00 0.00 0.00 63 1015.2
20260905164602 33 0 3.2 12.9 0.00 0.00 0.00 63 1015.3
20260905164051 32 360 3.2 12.9 0.00 0.00 0.00 64 1015.4
20260905163551 32 360 1.6 12.9 0.00 0.00 0.00 64 1015.5
20260905163106 32 360 6.4 12.9 0.00 0.00 0.00 65 1015.5
20260905162550 32 360 1.6 8.0 0.00 0.00 0.00 66 1015.4
20260905162051 32 0 1.6 8.0 0.00 0.00 0.00 66 1015.5
20260905161601 32 360 1.6 8.0 0.00 0.00 0.00 67 1015.6
20260905161052 32 0 0.0 6.4 0.00 0.00 0.00 68 1015.6
20260905160551 32 0 0.0 8.0 0.00 0.00 0.00 67 1015.7
20260905160112 32 360 1.6 8.0 0.00 0.00 0.00 67 1015.8
20260905155552 32 360 3.2 8.0 0.00 0.00 0.00 69 1015.8
20260905155054 31 0 0.0 8.0 0.00 0.00 0.00 68 1015.8
20260905154606 31 360 3.2 8.0 0.00 0.00 0.00 69 1016.0
20260905154052 31 0 3.2 8.0 0.00 0.00 0.00 69 1016.1
20260905153552 31 360 1.6 6.4 0.00 0.00 0.00 69 1016.1
20260905153104 31 0 1.6 6.4 0.00 0.00 0.00 69 1015.9
20260905152552 31 0 1.6 6.4 0.00 0.00 0.00 69 1016.1
20260905152051 31 360 1.6 6.4 0.00 0.00 0.00 69 1016.1
20260905151605 31 0 0.0 6.4 0.00 0.00 0.00 70 1016.1
20260905151052 31 360 1.6 6.4 0.00 0.00 0.00 70 1016.1
20260905150551 31 360 0.0 4.8 0.00 0.00 0.00 70 1016.1
20260905150108 30 0 1.6 4.8 0.00 0.00 0.00 70 1016.1
20260905145551 30 0 0.0 4.8 0.00 0.00 0.00 73 1016.2
20260905145051 30 0 0.0 4.8 0.00 0.00 0.00 74 1016.4
20260905144604 29 360 1.6 4.8 0.00 0.00 0.00 75 1016.4
20260905144052 29 0 0.0 1.6 0.00 0.00 0.00 76 1016.3
20260905143552 29 0 0.0 3.2 0.00 0.00 0.00 76 1016.4
20260905143100 29 0 0.0 3.2 0.00 0.00 0.00 76 1016.4
20260905142554 28 0 0.0 3.2 0.00 0.00 0.00 76 1016.4
20260905142053 28 360 0.0 1.6 0.00 0.00 0.00 77 1016.4
20260905141629 29 0 0.0 3.2 0.00 0.00 0.00 77 1016.6
20260905141053 29 0 0.0 3.2 0.00 0.00 0.00 77 1016.5
20260905140555 29 360 0.0 4.8 0.00 0.00 0.00 77 1016.5
20260905140109 28 0 0.0 4.8 0.00 0.00 0.00 78 1016.5
20260905135556 28 360 0.0 4.8 0.00 0.00 0.00 79 1016.5
20260905135055 28 360 1.6 4.8 0.00 0.00 0.00 80 1016.6
20260905134605 27 0 0.0 4.8 0.00 0.00 0.00 81 1016.5